FW3849 Weather Reports


Display with metric or nautical units.
time (UTC)temp
F
wind
direction
speed
MPH
gust
MPH
rain 1hr
in
rain 24hr
in
rain mn
in
humidity
%
barometer
mb
20260504204025 84 247 8.0 13.0 0.00 0.00 0.00 29 1008.7
20260504203524 84 214 8.0 13.0 0.00 0.00 0.00 29 1008.9
20260504203024 83 207 7.0 13.0 0.00 0.00 0.00 31 1008.9
20260504202522 83 201 7.0 13.0 0.00 0.00 0.00 30 1008.9
20260504202021 83 177 7.0 13.0 0.00 0.00 0.00 31 1009.1
20260504201519 83 189 9.0 13.0 0.00 0.00 0.00 31 1009.3
20260504201018 82 206 5.0 10.0 0.00 0.00 0.00 32 1009.3
20260504200518 82 248 6.0 13.0 0.00 0.00 0.00 32 1009.4
20260504195519 82 223 5.0 12.0 0.00 0.00 0.00 32 1009.4
20260504195019 81 198 6.0 12.0 0.00 0.00 0.00 32 1009.6
20260504194521 81 214 6.0 12.0 0.00 0.00 0.00 33 1009.6
20260504194021 81 216 8.0 13.0 0.00 0.00 0.00 33 1009.7
20260504193519 81 218 9.0 13.0 0.00 0.00 0.00 32 1009.6
20260504193017 81 219 5.0 13.0 0.00 0.00 0.00 33 1009.7
20260504192516 81 258 4.0 12.0 0.00 0.00 0.00 32 1009.9
20260504192016 81 256 6.0 12.0 0.00 0.00 0.00 33 1010.0
20260504191527 81 208 8.0 12.0 0.00 0.00 0.00 33 1009.9
20260504191016 81 250 8.0 11.0 0.00 0.00 0.00 32 1009.9
20260504190516 81 245 7.0 11.0 0.00 0.00 0.00 32 1009.9
20260504185514 81 212 6.0 12.0 0.00 0.00 0.00 32 1010.0
20260504185013 81 204 7.0 14.0 0.00 0.00 0.00 32 1009.9
20260504184515 81 243 10.0 14.0 0.00 0.00 0.00 33 1010.0
20260504184012 81 228 7.0 13.0 0.00 0.00 0.00 32 1010.1
20260504183511 81 233 9.0 13.0 0.00 0.00 0.00 33 1010.3
20260504183020 81 173 6.0 13.0 0.00 0.00 0.00 33 1010.6
20260504182507 80 202 7.0 14.0 0.00 0.00 0.00 33 1010.7
20260504182007 80 216 9.0 14.0 0.00 0.00 0.00 33 1010.8
20260504181506 80 197 8.0 12.0 0.00 0.00 0.00 33 1010.8
20260504181005 79 202 9.0 12.0 0.00 0.00 0.00 36 1010.8
20260504180509 78 198 7.0 13.0 0.00 0.00 0.00 37 1011.0
20260504175604 78 206 5.0 13.0 0.00 0.00 0.00 37 1011.0
20260504175003 78 228 6.0 14.0 0.00 0.00 0.00 37 1011.2
20260504174503 78 187 8.0 14.0 0.00 0.00 0.00 37 1011.3
20260504174001 77 196 8.0 13.0 0.00 0.00 0.00 38 1011.1
20260504173503 77 212 7.0 12.0 0.00 0.00 0.00 38 1011.2
20260504173106 77 209 8.0 12.0 0.00 0.00 0.00 38 1011.3
20260504172558 76 238 7.0 13.0 0.00 0.00 0.00 39 1011.6
20260504172057 76 200 7.0 13.0 0.00 0.00 0.00 40 1011.7
20260504171557 75 206 3.0 13.0 0.00 0.00 0.00 40 1011.6
20260504171055 75 142 5.0 11.0 0.00 0.00 0.00 43 1011.7
20260504170553 73 171 4.0 13.0 0.00 0.00 0.00 43 1011.6
20260504151035 68 205 10.0 16.0 0.00 0.00 0.00 50 1012.5
20260504150536 67 243 9.0 15.0 0.00 0.00 0.00 51 1012.4
20260504141028 65 195 3.0 10.0 0.00 0.00 0.00 54 1012.5
20260504140528 64 194 7.0 12.0 0.00 0.00 0.00 55 1012.3
20260504130522 63 143 4.0 8.0 0.00 0.00 0.00 55 1012.3
20260504110508 65 204 5.0 9.0 0.00 0.00 0.00 47 1011.5
20260504100501 65 137 2.0 6.0 0.00 0.00 0.00 45 1011.7
20260504081555 67 191 3.0 9.0 0.00 0.00 0.00 40 1012.5
20260504081057 68 168 5.0 11.0 0.00 0.00 0.00 40 1012.4
20260504080554 68 188 6.0 11.0 0.00 0.00 0.00 40 1012.6
20260504050541 69 194 5.0 12.0 0.00 0.00 0.00 39 1014.6
20260504045542 69 188 7.0 13.0 0.00 0.00 0.00 39 1014.7
20260504045041 69 206 6.0 10.0 0.00 0.00 0.00 39 1014.7
20260504044547 69 206 5.0 12.0 0.00 0.00 0.00 38 1014.9
20260504044041 69 205 8.0 12.0 0.00 0.00 0.00 38 1015.1
20260504043542 69 183 4.0 10.0 0.00 0.00 0.00 39 1015.1
20260504043041 69 180 3.0 9.0 0.00 0.00 0.00 39 1015.0
20260504042541 69 202 5.0 9.0 0.00 0.00 0.00 39 1015.0
20260504042041 70 151 4.0 11.0 0.00 0.00 0.00 39 1015.1
20260504041540 70 180 4.0 15.0 0.00 0.00 0.00 38 1015.1
20260504041040 70 193 9.0 15.0 0.00 0.00 0.00 38 1015.1
20260504040540 70 202 9.0 15.0 0.00 0.00 0.00 38 1015.0
20260504035547 70 204 9.0 15.0 0.00 0.00 0.00 38 1015.0
20260504035044 70 185 9.0 15.0 0.00 0.00 0.00 38 1014.8
20260504034555 70 191 8.0 12.0 0.00 0.00 0.00 38 1014.8
20260504034040 70 205 8.0 17.0 0.00 0.00 0.00 38 1015.0
20260504033541 70 213 8.0 17.0 0.00 0.00 0.00 37 1015.0
20260504033103 70 206 8.0 17.0 0.00 0.00 0.00 37 1015.0
20260504032541 70 213 9.0 16.0 0.00 0.00 0.00 37 1014.8
20260504032040 70 177 8.0 16.0 0.00 0.00 0.00 37 1014.7
20260504031541 70 196 9.0 13.0 0.00 0.00 0.00 37 1014.7
20260504031040 70 194 7.0 13.0 0.00 0.00 0.00 37 1014.8
20260504030539 71 196 7.0 12.0 0.00 0.00 0.00 37 1015.0
20260504030140 71 198 6.0 11.0 0.00 0.00 0.00 37 1015.0
20260504025538 71 205 7.0 11.0 0.00 0.00 0.00 36 1015.0
20260504025038 71 186 4.0 13.0 0.00 0.00 0.00 36 1015.0
20260504024539 71 174 4.0 13.0 0.00 0.00 0.00 36 1015.1
20260504024037 71 181 5.0 13.0 0.00 0.00 0.00 36 1015.2
20260504023538 71 193 7.0 13.0 0.00 0.00 0.00 36 1015.2
20260504023051 71 181 8.0 13.0 0.00 0.00 0.00 36 1014.9
20260504022537 71 196 7.0 16.0 0.00 0.00 0.00 36 1014.9
20260504022036 71 208 8.0 16.0 0.00 0.00 0.00 36 1015.0
20260504021537 71 182 8.0 16.0 0.00 0.00 0.00 35 1014.8
20260504021037 72 198 10.0 16.0 0.00 0.00 0.00 35 1014.7
20260504020537 72 189 10.0 14.0 0.00 0.00 0.00 34 1014.5
20260504015537 72 198 9.0 14.0 0.00 0.00 0.00 34 1014.7
20260504015038 72 194 8.0 14.0 0.00 0.00 0.00 33 1014.6
20260504014546 72 193 8.0 15.0 0.00 0.00 0.00 34 1014.5
20260504014035 72 193 9.0 14.0 0.00 0.00 0.00 33 1014.4
20260504013535 72 194 9.0 14.0 0.00 0.00 0.00 33 1014.4
20260504013043 72 198 9.0 13.0 0.00 0.00 0.00 33 1014.4
20260504012534 73 183 6.0 12.0 0.00 0.00 0.00 33 1014.5
20260504012033 73 184 8.0 16.0 0.00 0.00 0.00 33 1014.7
20260504011533 73 202 8.0 14.0 0.00 0.00 0.00 32 1014.6
20260504011032 73 210 9.0 15.0 0.00 0.00 0.00 32 1014.8
20260504010531 73 191 8.0 16.0 0.00 0.00 0.00 32 1014.7
20260504005531 73 189 9.0 18.0 0.00 0.00 0.00 32 1014.9
20260504005031 74 204 9.0 14.0 0.00 0.00 0.00 32 1014.8
20260504004535 74 191 9.0 15.0 0.00 0.00 0.00 31 1014.9
20260504004030 74 203 11.0 15.0 0.00 0.00 0.00 30 1015.0
20260504003531 74 212 9.0 14.0 0.00 0.00 0.00 31 1015.0
20260504003034 74 176 9.0 14.0 0.00 0.00 0.00 31 1014.9
20260504002529 74 166 10.0 16.0 0.00 0.00 0.00 30 1014.9
20260504002031 74 194 9.0 16.0 0.00 0.00 0.00 30 1014.9
20260504001530 75 179 11.0 16.0 0.00 0.00 0.00 30 1014.9
20260504001030 75 192 9.0 19.0 0.00 0.00 0.00 29 1014.9
20260504000527 75 193 10.0 19.0 0.00 0.00 0.00 29 1015.0
20260503235528 76 191 9.0 18.0 0.00 0.00 0.00 28 1015.3
20260503235028 76 232 10.0 18.0 0.00 0.00 0.00 27 1015.1
20260503234628 76 188 10.0 14.0 0.00 0.00 0.00 26 1015.2
20260503234027 77 196 5.0 14.0 0.00 0.00 0.00 27 1015.4
20260503233529 77 206 9.0 14.0 0.00 0.00 0.00 26 1015.4
20260503233027 77 204 9.0 14.0 0.00 0.00 0.00 26 1015.5
20260503232527 77 204 9.0 17.0 0.00 0.00 0.00 26 1015.4
20260503232026 77 189 8.0 13.0 0.00 0.00 0.00 26 1015.4
20260503231530 77 231 8.0 14.0 0.00 0.00 0.00 25 1015.4
20260503231026 77 221 9.0 15.0 0.00 0.00 0.00 25 1015.3
20260503230526 77 202 11.0 16.0 0.00 0.00 0.00 24 1015.3
20260503225525 77 216 8.0 16.0 0.00 0.00 0.00 24 1015.2
20260503225024 78 189 9.0 16.0 0.00 0.00 0.00 24 1015.3
20260503224523 77 193 7.0 15.0 0.00 0.00 0.00 24 1015.3
20260503224023 77 185 7.0 15.0 0.00 0.00 0.00 25 1015.5
20260503223526 77 209 9.0 17.0 0.00 0.00 0.00 24 1015.4
20260503223024 77 197 10.0 17.0 0.00 0.00 0.00 24 1015.3
20260503222522 77 204 9.0 16.0 0.00 0.00 0.00 24 1015.3
20260503222021 77 193 8.0 16.0 0.00 0.00 0.00 24 1015.5
20260503221520 77 228 7.0 17.0 0.00 0.00 0.00 22 1015.7
20260503221020 78 216 9.0 17.0 0.00 0.00 0.00 23 1015.7
20260503220521 77 227 8.0 14.0 0.00 0.00 0.00 24 1015.7
20260503220119 77 227 8.0 14.0 0.00 0.00 0.00 24 1016.0
20260503215520 77 151 7.0 13.0 0.00 0.00 0.00 23 1016.1
20260503215019 77 181 8.0 17.0 0.00 0.00 0.00 23 1016.4
20260503214519 77 187 9.0 17.0 0.00 0.00 0.00 24 1016.4
20260503214023 77 212 8.0 17.0 0.00 0.00 0.00 23 1016.3
20260503213519 77 196 12.0 17.0 0.00 0.00 0.00 22 1016.5
20260503213017 77 196 6.0 17.0 0.00 0.00 0.00 23 1016.5
20260503212517 77 207 11.0 17.0 0.00 0.00 0.00 23 1016.6
20260503212015 77 202 9.0 15.0 0.00 0.00 0.00 23 1016.7
20260503211514 76 228 6.0 15.0 0.00 0.00 0.00 24 1016.7
20260503211013 76 141 7.0 15.0 0.00 0.00 0.00 24 1016.9
20260503210517 76 185 9.0 16.0 0.00 0.00 0.00 25 1017.0
20260503205511 76 212 9.0 18.0 0.00 0.00 0.00 25 1017.1
20260503205009 75 220 11.0 18.0 0.00 0.00 0.00 25 1017.2
20260503204509 75 204 8.0 18.0 0.00 0.00 0.00 25 1017.4